UAL2671 KTUS-KDEN

Flight info

Callsign UAL2671
Flight time 1h 34m
Altitude 37000
Route WLDKT4 SSO J104 ONM/N0449F360 GNDLA TBARR4
Aircraft A320/M-SDE3FGHIRWY/LB1

Departure

Time 2026-04-22 23:47
Airport Tucson International Airport (KTUS)

Arrival

Time 2026-04-23 01:21
Airport Denver International Airport (KDEN)
Time Latitude Longitude Altitude Speed Heading
2026-04-22 23:11 32.11846 -110.93672 2594 ft 0 kts 346°
2026-04-22 23:36 32.11836 -110.93669 2586 ft 4 kts 346°
2026-04-22 23:36 32.11813 -110.93663 2586 ft 4 kts 344°
2026-04-22 23:36 32.11792 -110.93649 2593 ft 4 kts 292°
2026-04-22 23:36 32.11792 -110.93621 2590 ft 4 kts 239°
2026-04-22 23:37 32.11798 -110.93610 2583 ft 0 kts 227°
2026-04-22 23:38 32.11795 -110.93614 2591 ft 3 kts 226°
2026-04-22 23:39 32.11774 -110.93640 2590 ft 5 kts 225°
2026-04-22 23:39 32.11750 -110.93674 2586 ft 6 kts 250°
2026-04-22 23:39 32.11762 -110.93733 2585 ft 9 kts 308°
2026-04-22 23:39 32.11765 -110.93796 2588 ft 7 kts 226°
2026-04-22 23:40 32.11730 -110.93818 2591 ft 6 kts 186°
2026-04-22 23:40 32.11700 -110.93799 2596 ft 5 kts 141°
2026-04-22 23:40 32.11673 -110.93768 2600 ft 7 kts 135°
2026-04-22 23:40 32.11632 -110.93720 2602 ft 9 kts 135°
2026-04-22 23:41 32.11578 -110.93655 2604 ft 12 kts 134°
2026-04-22 23:41 32.11519 -110.93587 2607 ft 11 kts 136°
2026-04-22 23:41 32.11468 -110.93527 2611 ft 11 kts 135°
2026-04-22 23:41 32.11400 -110.93448 2615 ft 16 kts 135°
2026-04-22 23:42 32.11323 -110.93358 2617 ft 16 kts 135°
2026-04-22 23:42 32.11248 -110.93268 2620 ft 15 kts 135°
2026-04-22 23:42 32.11175 -110.93183 2621 ft 16 kts 135°
2026-04-22 23:42 32.11095 -110.93089 2622 ft 17 kts 135°
2026-04-22 23:43 32.11015 -110.92996 2625 ft 16 kts 135°
2026-04-22 23:43 32.10938 -110.92905 2627 ft 16 kts 135°
2026-04-22 23:43 32.10862 -110.92815 2631 ft 15 kts 135°
2026-04-22 23:43 32.10796 -110.92738 2635 ft 13 kts 135°
2026-04-22 23:44 32.10725 -110.92654 2638 ft 15 kts 135°
2026-04-22 23:44 32.10652 -110.92570 2642 ft 14 kts 135°
2026-04-22 23:44 32.10589 -110.92495 2645 ft 13 kts 135°
2026-04-22 23:44 32.10514 -110.92407 2646 ft 17 kts 135°
2026-04-22 23:45 32.10430 -110.92308 2649 ft 17 kts 135°
2026-04-22 23:45 32.10359 -110.92225 2651 ft 11 kts 135°
2026-04-22 23:45 32.10301 -110.92186 2656 ft 9 kts 202°
2026-04-22 23:45 32.10251 -110.92239 2656 ft 10 kts 227°
2026-04-22 23:46 32.10215 -110.92299 2653 ft 6 kts 277°
2026-04-22 23:46 32.10234 -110.92323 2659 ft 0 kts 315°
2026-04-22 23:46 32.10304 -110.92407 2651 ft 45 kts 314°
2026-04-22 23:46 32.10684 -110.92852 2637 ft 108 kts 315°
2026-04-22 23:47 32.11340 -110.93623 2613 ft 157 kts 314°
2026-04-22 23:47 32.12196 -110.94615 2868 ft 175 kts 309°
2026-04-22 23:47 32.13066 -110.95608 3610 ft 173 kts 309°
2026-04-22 23:47 32.13901 -110.96618 4178 ft 172 kts 309°
2026-04-22 23:48 32.14772 -110.97681 4494 ft 191 kts 310°
2026-04-22 23:48 32.15757 -110.98860 4711 ft 211 kts 310°
2026-04-22 23:48 32.16850 -111.00142 4937 ft 234 kts 311°
2026-04-22 23:48 32.18074 -111.01577 5174 ft 260 kts 310°
2026-04-22 23:49 32.19366 -111.03099 5877 ft 266 kts 312°
2026-04-22 23:49 32.20682 -111.04633 6563 ft 273 kts 314°
2026-04-22 23:49 32.22375 -111.05690 7275 ft 285 kts 347°
2026-04-22 23:49 32.24363 -111.05466 8014 ft 298 kts 20°
2026-04-22 23:50 32.26142 -111.04149 8757 ft 306 kts 38°
2026-04-22 23:50 32.27698 -111.02405 9598 ft 310 kts 45°
2026-04-22 23:50 32.29042 -111.00389 10273 ft 316 kts 62°
2026-04-22 23:50 32.29879 -110.97910 10630 ft 336 kts 75°
2026-04-22 23:51 32.30387 -110.95125 10773 ft 359 kts 83°
2026-04-22 23:51 32.30636 -110.92139 11244 ft 368 kts 86°
2026-04-22 23:51 32.30882 -110.89136 11814 ft 375 kts 85°
2026-04-22 23:51 32.31138 -110.86047 12478 ft 380 kts 86°
2026-04-22 23:52 32.31389 -110.82922 13110 ft 384 kts 86°
2026-04-22 23:52 32.31626 -110.79775 13737 ft 389 kts 86°
2026-04-22 23:52 32.31853 -110.76563 14328 ft 392 kts 86°
2026-04-22 23:52 32.32074 -110.73329 14887 ft 396 kts 87°
2026-04-22 23:53 32.32293 -110.70070 15441 ft 400 kts 86°
2026-04-22 23:53 32.32515 -110.66812 15959 ft 405 kts 86°
2026-04-22 23:53 32.32745 -110.63440 16501 ft 408 kts 86°
2026-04-22 23:53 32.32973 -110.60124 17028 ft 413 kts 86°
2026-04-22 23:54 32.33037 -110.56720 17581 ft 415 kts 94°
2026-04-22 23:54 32.32888 -110.53301 18120 ft 419 kts 94°
2026-04-22 23:54 32.32738 -110.49843 18621 ft 423 kts 94°
2026-04-22 23:54 32.32588 -110.46354 19139 ft 426 kts 94°
2026-04-22 23:55 32.32437 -110.42840 19652 ft 430 kts 95°
2026-04-22 23:55 32.32285 -110.39293 20159 ft 435 kts 95°
2026-04-22 23:55 32.32133 -110.35709 20673 ft 438 kts 95°
2026-04-22 23:55 32.31981 -110.32140 21174 ft 442 kts 95°
2026-04-22 23:56 32.31823 -110.28499 21664 ft 446 kts 95°
2026-04-22 23:56 32.31660 -110.24823 22142 ft 449 kts 95°
2026-04-22 23:56 32.31494 -110.21124 22621 ft 453 kts 95°
2026-04-22 23:56 32.31326 -110.17395 23041 ft 457 kts 95°
2026-04-22 23:57 32.31156 -110.13627 23478 ft 461 kts 95°
2026-04-22 23:57 32.30986 -110.09831 23843 ft 464 kts 95°
2026-04-22 23:57 32.30813 -110.06005 24204 ft 467 kts 95°
2026-04-22 23:57 32.30638 -110.02159 24519 ft 471 kts 95°
2026-04-22 23:58 32.30459 -109.98325 24852 ft 475 kts 95°
2026-04-22 23:58 32.30277 -109.94419 25194 ft 477 kts 95°
2026-04-22 23:58 32.30093 -109.90493 25523 ft 481 kts 95°
2026-04-22 23:58 32.29906 -109.86534 25844 ft 484 kts 95°
2026-04-22 23:59 32.29718 -109.82548 26166 ft 487 kts 95°
2026-04-22 23:59 32.29528 -109.78548 26493 ft 490 kts 95°
2026-04-22 23:59 32.29336 -109.74519 26824 ft 493 kts 95°
2026-04-22 23:59 32.29143 -109.70513 27117 ft 496 kts 95°
2026-04-23 00:00 32.28747 -109.62330 27755 ft 502 kts 94°
2026-04-23 00:00 32.28544 -109.58206 28082 ft 505 kts 95°
2026-04-23 00:00 32.28337 -109.54059 28354 ft 508 kts 94°
2026-04-23 00:01 32.28130 -109.49882 28605 ft 510 kts 94°
2026-04-23 00:01 32.27921 -109.45690 28927 ft 512 kts 94°
2026-04-23 00:01 32.27707 -109.41470 29237 ft 515 kts 94°
2026-04-23 00:01 32.27533 -109.37255 29687 ft 514 kts 90°
2026-04-23 00:02 32.27799 -109.33047 30091 ft 513 kts 79°
2026-04-23 00:02 32.28594 -109.29012 30435 ft 510 kts 69°
2026-04-23 00:02 32.29904 -109.25142 30783 ft 506 kts 59°
2026-04-23 00:02 32.31685 -109.21582 31134 ft 500 kts 49°
2026-04-23 00:03 32.33867 -109.18425 31495 ft 492 kts 39°
2026-04-23 00:03 32.36311 -109.15612 31875 ft 489 kts 37°
2026-04-23 00:03 32.38759 -109.12823 32291 ft 489 kts 37°
2026-04-23 00:03 32.41203 -109.10028 32716 ft 488 kts 36°
2026-04-23 00:04 32.43636 -109.07237 33135 ft 487 kts 36°
2026-04-23 00:04 32.46038 -109.04476 33555 ft 487 kts 36°
2026-04-23 00:04 32.48461 -109.01690 33949 ft 486 kts 36°
2026-04-23 00:04 32.50880 -108.98907 34304 ft 485 kts 35°
2026-04-23 00:05 32.53298 -108.96126 34625 ft 485 kts 35°
2026-04-23 00:05 32.55720 -108.93339 34932 ft 484 kts 35°
2026-04-23 00:05 32.58135 -108.90560 35218 ft 485 kts 35°
2026-04-23 00:05 32.60555 -108.87774 35488 ft 485 kts 35°
2026-04-23 00:06 32.62944 -108.85025 35750 ft 485 kts 35°
2026-04-23 00:06 32.65366 -108.82234 36013 ft 485 kts 35°
2026-04-23 00:06 32.67785 -108.79441 36265 ft 485 kts 35°
2026-04-23 00:06 32.70202 -108.76648 36516 ft 485 kts 35°
2026-04-23 00:07 32.72623 -108.73850 36758 ft 486 kts 35°
2026-04-23 00:07 32.77495 -108.68225 36862 ft 493 kts 35°
2026-04-23 00:08 32.82422 -108.62516 36861 ft 496 kts 36°
2026-04-23 00:08 32.87318 -108.56815 36867 ft 496 kts 36°
2026-04-23 00:09 32.92253 -108.51066 36869 ft 496 kts 36°
2026-04-23 00:09 32.97183 -108.45314 36880 ft 496 kts 36°
2026-04-23 00:10 33.02119 -108.39552 36896 ft 496 kts 36°
2026-04-23 00:10 33.07019 -108.33830 36904 ft 497 kts 36°
2026-04-23 00:11 33.11951 -108.28059 36912 ft 496 kts 36°
2026-04-23 00:11 33.16879 -108.22283 36917 ft 497 kts 36°
2026-04-23 00:12 33.21807 -108.16493 36922 ft 497 kts 36°
2026-04-23 00:12 33.26731 -108.10693 36922 ft 497 kts 36°
2026-04-23 00:13 33.31624 -108.04927 36915 ft 497 kts 36°
2026-04-23 00:13 33.36549 -107.99108 36906 ft 498 kts 37°
2026-04-23 00:14 33.41475 -107.93273 36902 ft 498 kts 37°
2026-04-23 00:14 33.46408 -107.87432 36885 ft 499 kts 37°
2026-04-23 00:15 33.51305 -107.81621 36885 ft 499 kts 37°
2026-04-23 00:15 33.56231 -107.75759 36875 ft 499 kts 37°
2026-04-23 00:16 33.61158 -107.69887 36868 ft 499 kts 37°
2026-04-23 00:16 33.66081 -107.64015 36862 ft 499 kts 37°
2026-04-23 00:17 33.70966 -107.58171 36857 ft 499 kts 37°
2026-04-23 00:17 33.75880 -107.52283 36853 ft 498 kts 37°
2026-04-23 00:18 33.80788 -107.46400 36847 ft 498 kts 37°
2026-04-23 00:18 33.85683 -107.40522 36843 ft 497 kts 38°
2026-04-23 00:19 33.90565 -107.34641 36837 ft 496 kts 38°
2026-04-23 00:19 33.95412 -107.28798 36851 ft 496 kts 38°
2026-04-23 00:20 34.00282 -107.22924 36875 ft 495 kts 38°
2026-04-23 00:20 34.05147 -107.17041 36893 ft 495 kts 38°
2026-04-23 00:21 34.09965 -107.11197 36916 ft 495 kts 38°
2026-04-23 00:21 34.14819 -107.05305 36915 ft 495 kts 38°
2026-04-23 00:22 34.19674 -106.99404 36902 ft 495 kts 38°
2026-04-23 00:22 34.24525 -106.93503 36875 ft 495 kts 38°
2026-04-23 00:23 34.29451 -106.87736 36840 ft 488 kts 31°
2026-04-23 00:23 34.35134 -106.83736 36798 ft 467 kts 12°
2026-04-23 00:24 34.41306 -106.81972 36774 ft 447 kts 355°
2026-04-23 00:24 34.47465 -106.81800 36769 ft 442 kts 352°
2026-04-23 00:25 34.53625 -106.81688 36767 ft 443 kts 352°
2026-04-23 00:25 34.59760 -106.81568 36767 ft 444 kts 352°
2026-04-23 00:26 34.65944 -106.81447 36765 ft 445 kts 352°
2026-04-23 00:26 34.72142 -106.81331 36767 ft 445 kts 352°
2026-04-23 00:27 34.78035 -106.81228 36811 ft 446 kts 352°
2026-04-23 00:27 34.84204 -106.81123 36853 ft 446 kts 353°
2026-04-23 00:28 34.90420 -106.81005 36892 ft 447 kts 353°
2026-04-23 00:28 34.96639 -106.80883 36919 ft 447 kts 353°
2026-04-23 00:29 35.02864 -106.80759 37006 ft 448 kts 353°
2026-04-23 00:29 35.09097 -106.80638 37024 ft 448 kts 353°
2026-04-23 00:30 35.15291 -106.80531 37027 ft 448 kts 353°
2026-04-23 00:30 35.21531 -106.80415 37027 ft 449 kts 353°
2026-04-23 00:31 35.27777 -106.80302 36992 ft 449 kts 353°
2026-04-23 00:31 35.34022 -106.80185 36944 ft 449 kts 353°
2026-04-23 00:32 35.40237 -106.80063 36903 ft 449 kts 353°
2026-04-23 00:32 35.46487 -106.79939 36860 ft 450 kts 353°
2026-04-23 00:33 35.52751 -106.79830 36839 ft 450 kts 353°
2026-04-23 00:33 35.59010 -106.79712 36846 ft 450 kts 353°
2026-04-23 00:34 35.65276 -106.79586 36853 ft 450 kts 353°
2026-04-23 00:34 35.71502 -106.79464 36859 ft 451 kts 353°
2026-04-23 00:35 35.77764 -106.79341 36864 ft 450 kts 353°
2026-04-23 00:35 35.84044 -106.79224 36877 ft 452 kts 353°
2026-04-23 00:36 35.90329 -106.79111 36881 ft 452 kts 353°
2026-04-23 00:36 35.96623 -106.78993 36888 ft 452 kts 353°
2026-04-23 00:37 36.02867 -106.78874 36888 ft 452 kts 353°
2026-04-23 00:37 36.09164 -106.78749 36886 ft 452 kts 353°
2026-04-23 00:38 36.15461 -106.78619 36884 ft 453 kts 353°
2026-04-23 00:38 36.21761 -106.78496 36878 ft 453 kts 353°
2026-04-23 00:39 36.28026 -106.78383 36884 ft 453 kts 353°
2026-04-23 00:39 36.34328 -106.78264 36884 ft 453 kts 353°
2026-04-23 00:40 36.40640 -106.78137 36882 ft 453 kts 353°
2026-04-23 00:40 36.46951 -106.78021 36883 ft 454 kts 353°
2026-04-23 00:41 36.53225 -106.77896 36877 ft 454 kts 353°
2026-04-23 00:41 36.59536 -106.77777 36878 ft 454 kts 352°
2026-04-23 00:42 36.65859 -106.77661 36879 ft 454 kts 353°
2026-04-23 00:42 36.72185 -106.77537 36881 ft 455 kts 352°
2026-04-23 00:43 36.78498 -106.76991 36885 ft 466 kts
2026-04-23 00:43 36.84858 -106.75213 36892 ft 469 kts
2026-04-23 00:44 36.91225 -106.73428 36892 ft 469 kts
2026-04-23 00:44 36.97596 -106.71641 36899 ft 470 kts
2026-04-23 00:45 37.03930 -106.69872 36898 ft 470 kts
2026-04-23 00:45 37.10312 -106.68085 36915 ft 470 kts
2026-04-23 00:46 37.16685 -106.66281 36927 ft 469 kts
2026-04-23 00:46 37.23052 -106.64479 36924 ft 469 kts
2026-04-23 00:47 37.29416 -106.62683 36924 ft 468 kts
2026-04-23 00:47 37.35729 -106.60903 36915 ft 468 kts
2026-04-23 00:48 37.41930 -106.59142 36911 ft 468 kts
2026-04-23 00:48 37.48273 -106.57337 36926 ft 467 kts
2026-04-23 00:49 37.54606 -106.55534 36945 ft 467 kts
2026-04-23 00:49 37.60899 -106.53742 36963 ft 467 kts
2026-04-23 00:50 37.67238 -106.51935 36987 ft 467 kts
2026-04-23 00:50 37.73581 -106.50121 36990 ft 468 kts
2026-04-23 00:51 37.79938 -106.48298 36995 ft 469 kts
2026-04-23 00:51 37.86269 -106.46481 36973 ft 470 kts
2026-04-23 00:52 37.92651 -106.44648 36942 ft 471 kts
2026-04-23 00:52 37.99052 -106.42815 36896 ft 472 kts
2026-04-23 00:53 38.05478 -106.40965 36842 ft 474 kts
2026-04-23 00:53 38.11872 -106.39112 36819 ft 475 kts
2026-04-23 00:54 38.18327 -106.37252 36811 ft 476 kts
2026-04-23 00:54 38.24796 -106.35382 36799 ft 477 kts
2026-04-23 00:55 38.31276 -106.33501 36814 ft 478 kts
2026-04-23 00:55 38.37726 -106.31625 36839 ft 479 kts
2026-04-23 00:56 38.44235 -106.29733 36868 ft 480 kts
2026-04-23 00:56 38.50744 -106.27838 36879 ft 480 kts
2026-04-23 00:56 38.54000 -106.26892 36741 ft 481 kts
2026-04-23 00:57 38.57261 -106.25942 36483 ft 481 kts
2026-04-23 00:57 38.60498 -106.24809 35960 ft 489 kts 13°
2026-04-23 00:57 38.63616 -106.23047 35105 ft 503 kts 24°
2026-04-23 00:57 38.66574 -106.20562 34307 ft 516 kts 34°
2026-04-23 00:58 38.69245 -106.17446 33397 ft 525 kts 45°
2026-04-23 00:58 38.71640 -106.13861 32463 ft 531 kts 48°
2026-04-23 00:58 38.73988 -106.10264 32039 ft 523 kts 48°
2026-04-23 00:58 38.76318 -106.06701 31424 ft 520 kts 47°
2026-04-23 00:59 38.78623 -106.03175 30838 ft 516 kts 48°
2026-04-23 00:59 38.80897 -105.99687 30159 ft 504 kts 48°
2026-04-23 00:59 38.83106 -105.96284 29548 ft 489 kts 48°
2026-04-23 00:59 38.85252 -105.92971 28958 ft 475 kts 47°
2026-04-23 01:00 38.87309 -105.89795 28410 ft 463 kts 47°
2026-04-23 01:00 38.89347 -105.86654 27872 ft 457 kts 48°
2026-04-23 01:00 38.91379 -105.83516 27343 ft 458 kts 48°
2026-04-23 01:00 38.93414 -105.80363 26797 ft 459 kts 48°
2026-04-23 01:01 38.95443 -105.77203 26257 ft 459 kts 48°
2026-04-23 01:01 38.97471 -105.74028 25723 ft 459 kts 49°
2026-04-23 01:01 38.99493 -105.70856 25210 ft 459 kts 49°
2026-04-23 01:01 39.01512 -105.67689 24729 ft 458 kts 49°
2026-04-23 01:02 39.03539 -105.64521 24249 ft 458 kts 49°
2026-04-23 01:02 39.05539 -105.61415 23792 ft 456 kts 49°
2026-04-23 01:02 39.07563 -105.58278 23333 ft 455 kts 49°
2026-04-23 01:02 39.09579 -105.55147 22906 ft 452 kts 49°
2026-04-23 01:03 39.11577 -105.52035 22387 ft 450 kts 49°
2026-04-23 01:03 39.13556 -105.48950 22120 ft 442 kts 49°
2026-04-23 01:03 39.15495 -105.45921 21806 ft 436 kts 49°
2026-04-23 01:03 39.17411 -105.42904 21403 ft 433 kts 49°
2026-04-23 01:04 39.19296 -105.39911 20919 ft 427 kts 49°
2026-04-23 01:04 39.21127 -105.36990 20142 ft 421 kts 49°
2026-04-23 01:04 39.24766 -105.31180 19036 ft 415 kts 50°
2026-04-23 01:05 39.26570 -105.28306 18759 ft 407 kts 50°
2026-04-23 01:05 39.28393 -105.25595 18625 ft 394 kts 41°
2026-04-23 01:05 39.30475 -105.23392 18417 ft 382 kts 32°
2026-04-23 01:05 39.32628 -105.21400 18141 ft 378 kts 32°
2026-04-23 01:06 39.34034 -105.20096 17988 ft 376 kts 32°
2026-04-23 01:06 39.36149 -105.18131 17765 ft 374 kts 32°
2026-04-23 01:06 39.38938 -105.15535 17428 ft 371 kts 32°
2026-04-23 01:06 39.41023 -105.13594 17175 ft 368 kts 32°
2026-04-23 01:07 39.43103 -105.11657 16924 ft 367 kts 32°
2026-04-23 01:07 39.45157 -105.09745 16680 ft 362 kts 32°
2026-04-23 01:07 39.47194 -105.07853 16435 ft 360 kts 32°
2026-04-23 01:07 39.49222 -105.05982 16196 ft 356 kts 32°
2026-04-23 01:08 39.50556 -105.04757 16038 ft 352 kts 32°
2026-04-23 01:08 39.52541 -105.02936 15797 ft 348 kts 32°
2026-04-23 01:08 39.54505 -105.01132 15562 ft 345 kts 32°
2026-04-23 01:08 39.57090 -104.98759 15245 ft 342 kts 32°
2026-04-23 01:09 39.59024 -104.96988 15084 ft 339 kts 32°
2026-04-23 01:09 39.60950 -104.95220 14847 ft 339 kts 32°
2026-04-23 01:09 39.62864 -104.93456 14568 ft 336 kts 32°
2026-04-23 01:09 39.64763 -104.91703 14283 ft 334 kts 32°
2026-04-23 01:10 39.66014 -104.90547 14088 ft 333 kts 32°
2026-04-23 01:10 39.67892 -104.88810 13770 ft 331 kts 32°
2026-04-23 01:10 39.69759 -104.87084 13498 ft 328 kts 32°
2026-04-23 01:10 39.71665 -104.85484 13196 ft 323 kts 22°
2026-04-23 01:11 39.74427 -104.84280 12841 ft 312 kts
2026-04-23 01:11 39.75873 -104.84090 12662 ft 308 kts 356°
2026-04-23 01:11 39.78013 -104.84074 12391 ft 307 kts 355°
2026-04-23 01:11 39.80113 -104.84054 12120 ft 306 kts 355°
2026-04-23 01:12 39.82238 -104.84028 11848 ft 304 kts 356°
2026-04-23 01:12 39.84349 -104.83998 11590 ft 304 kts 356°
2026-04-23 01:12 39.86452 -104.83965 11326 ft 301 kts 356°
2026-04-23 01:12 39.88534 -104.83934 11082 ft 297 kts 356°
2026-04-23 01:13 39.90584 -104.83906 10870 ft 293 kts 355°
2026-04-23 01:13 39.92607 -104.83882 10646 ft 289 kts 355°
2026-04-23 01:13 39.94599 -104.83864 10419 ft 285 kts 355°
2026-04-23 01:13 39.96567 -104.83848 10208 ft 281 kts 355°
2026-04-23 01:14 39.98490 -104.83831 9984 ft 278 kts 355°
2026-04-23 01:14 40.00410 -104.83815 9789 ft 274 kts 355°
2026-04-23 01:14 40.02295 -104.83799 9606 ft 269 kts 354°
2026-04-23 01:14 40.04149 -104.83786 9409 ft 264 kts 354°
2026-04-23 01:15 40.05977 -104.83750 9164 ft 263 kts 359°
2026-04-23 01:15 40.07725 -104.83012 8909 ft 271 kts 30°
2026-04-23 01:15 40.09014 -104.81242 8768 ft 272 kts 62°
2026-04-23 01:15 40.09597 -104.78889 8718 ft 274 kts 83°
2026-04-23 01:16 40.09644 -104.76430 8707 ft 268 kts 101°
2026-04-23 01:16 40.09220 -104.74179 8705 ft 250 kts 117°
2026-04-23 01:16 40.08430 -104.72245 8631 ft 235 kts 133°
2026-04-23 01:16 40.07377 -104.70700 8488 ft 222 kts 147°
2026-04-23 01:17 40.06138 -104.69563 8302 ft 215 kts 160°
2026-04-23 01:17 40.04834 -104.68863 8119 ft 209 kts 172°
2026-04-23 01:17 40.03468 -104.68540 7875 ft 191 kts 184°
2026-04-23 01:17 40.02181 -104.68535 7635 ft 180 kts 188°
2026-04-23 01:18 40.00987 -104.68544 7440 ft 163 kts 189°
2026-04-23 01:18 39.99893 -104.68556 7249 ft 153 kts 190°
2026-04-23 01:18 39.98839 -104.68571 7060 ft 152 kts 189°
2026-04-23 01:18 39.97789 -104.68585 6886 ft 153 kts 188°
2026-04-23 01:19 39.96732 -104.68597 6712 ft 150 kts 190°
2026-04-23 01:19 39.95698 -104.68609 6534 ft 148 kts 188°
2026-04-23 01:19 39.94668 -104.68622 6343 ft 150 kts 188°
2026-04-23 01:19 39.93621 -104.68635 6174 ft 149 kts 190°
2026-04-23 01:20 39.92579 -104.68652 5979 ft 150 kts 191°
2026-04-23 01:20 39.91553 -104.68676 5816 ft 149 kts 188°
2026-04-23 01:20 39.90538 -104.68676 5595 ft 145 kts 187°
2026-04-23 01:20 39.89536 -104.68684 5398 ft 143 kts 189°
2026-04-23 01:21 39.88641 -104.68695 5363 ft 105 kts 180°
2026-04-23 01:21 39.88086 -104.68699 5368 ft 55 kts 180°
2026-04-23 01:21 39.87835 -104.68675 5368 ft 32 kts 166°
2026-04-23 01:21 39.87670 -104.68592 5365 ft 16 kts 151°
2026-04-23 01:22 39.87574 -104.68523 5365 ft 16 kts 152°
2026-04-23 01:22 39.87462 -104.68492 5365 ft 17 kts 179°
2026-04-23 01:22 39.87344 -104.68493 5365 ft 18 kts 181°
2026-04-23 01:22 39.87220 -104.68498 5365 ft 18 kts 181°
2026-04-23 01:23 39.87091 -104.68498 5364 ft 19 kts 181°
2026-04-23 01:23 39.86958 -104.68497 5365 ft 19 kts 180°
2026-04-23 01:23 39.86820 -104.68499 5365 ft 20 kts 180°
2026-04-23 01:23 39.86677 -104.68501 5366 ft 21 kts 181°
2026-04-23 01:24 39.86537 -104.68503 5364 ft 19 kts 181°
2026-04-23 01:24 39.86402 -104.68504 5365 ft 20 kts 181°
2026-04-23 01:24 39.86264 -104.68506 5365 ft 20 kts 180°
2026-04-23 01:24 39.86124 -104.68507 5366 ft 21 kts 180°
2026-04-23 01:25 39.85978 -104.68510 5364 ft 21 kts 180°
2026-04-23 01:25 39.85838 -104.68511 5363 ft 17 kts 181°
2026-04-23 01:25 39.85741 -104.68511 5364 ft 13 kts 179°
2026-04-23 01:25 39.85688 -104.68440 5365 ft 13 kts 90°
2026-04-23 01:26 39.85687 -104.68318 5366 ft 14 kts 90°
2026-04-23 01:26 39.85681 -104.68188 5366 ft 15 kts 108°
2026-04-23 01:26 39.85670 -104.68060 5366 ft 14 kts 89°
2026-04-23 01:26 39.85672 -104.67928 5365 ft 15 kts 89°
2026-04-23 01:27 39.85668 -104.67791 5366 ft 15 kts 93°
2026-04-23 01:27 39.85666 -104.67655 5366 ft 15 kts 90°
2026-04-23 01:27 39.85666 -104.67518 5366 ft 15 kts 90°
2026-04-23 01:27 39.85664 -104.67376 5365 ft 16 kts 89°
2026-04-23 01:28 39.85716 -104.67256 5366 ft 15 kts 64°
2026-04-23 01:28 39.85733 -104.67154 5366 ft 12 kts 88°
2026-04-23 01:28 39.85732 -104.67053 5366 ft 9 kts 92°
2026-04-23 01:28 39.85731 -104.66977 5366 ft 5 kts 91°
2026-04-23 01:29 39.85753 -104.66955 5364 ft 5 kts 10°
2026-04-23 01:29 39.85786 -104.66955 5365 ft 4 kts 359°
2026-04-23 01:29 39.85804 -104.66955 5366 ft 1 kts 360°
2026-04-23 01:29 39.85806 -104.66955 5366 ft 0 kts 360°